Location: Bayenghem
(50.7003°N, 2.0768°E)
Time: 10:48:00
(UTC+00:00)

Daily predictions for brighter satellites

Satellite Brightness Start Highest point End
(mag) Time Altitude Azimuth Time Altitude Azimuth Time Altitude Azimuth
USA 267 3.8 16:15:00 10° ENE 16:21:16 46° SE 16:27:30 10° SSW
SJ 16-02 2.9 16:19:56 10° NW 16:24:05 42° WSW 16:28:12 10° S
H-2A R/B 3.0 16:21:17 10° ESE 16:25:20 24° ENE 16:29:19 10° N
USA 276 4.1 16:24:59 10° W 16:27:47 30° SSW 16:30:34 10° SE
Cosmos 1763 Rocket 4.1 16:23:21 10° SSE 16:27:57 36° ESE 16:32:37 10° NE
USA 305 3.1 16:24:02 10° W 16:28:13 59° N 16:32:26 10° ENE
CZ-4B R/B 2.9 16:25:28 10° SSE 16:29:24 57° ENE 16:33:11 10° N
Cosmos 1656 3.9 16:24:08 10° NNW 16:29:41 80° WSW 16:35:17 10° SSE
Cosmos 1933 4.4 16:30:58 10° SE 16:34:19 25° E 16:37:40 10° NNE
USA 229 DEB 4.0 16:27:08 10° NW 16:34:25 87° NE 16:42:12 10° SE
USA 229 4.0 16:27:13 10° NW 16:34:31 86° NE 16:42:18 10° SE
Cosmos 1937 Rocket 3.7 16:30:50 10° NNW 16:36:02 49° ENE 16:41:11 10° SE
Cosmos 1464 Rocket 4.1 16:29:55 10° S 16:36:17 78° E 16:42:40 10° NNE
Cosmos 1500 Rocket 3.6 16:34:39 10° N 16:39:04 59° ENE 16:43:25 10° SSE
Cosmos 1666 4.3 16:37:01 10° NNE 16:39:08 14° ENE 16:41:15 10° E
SL-16 R/B 4.4 16:34:19 10° N 16:39:12 25° NW 16:44:06 10° WSW
Spot 1 4.4 16:34:45 10° NNE 16:39:23 59° ESE 16:44:15 10° S
Nadezhda 4 Rocket 4.0 16:34:29 10° N 16:40:51 80° E 16:47:12 10° SSE
SL-24 R/B - RUBIN 2 3.8 16:36:56 10° NW 16:41:28 47° NE 16:45:42 10° ESE
SeaSat 1 3.6 16:37:34 10° NNE 16:42:07 38° NW 16:46:39 10° WSW
Cosmos 2322 Rocket 3.7 16:38:45 10° N 16:42:28 17° NNE 16:45:58 11° ENE
Cosmos 990 Rocket 4.0 16:37:48 10° NNW 16:43:03 89° WSW 16:48:12 10° SSE
ATLAS 2AS CENTAUR R/B 3.9 16:36:04 10° W 16:43:06 35° NNW 16:49:49 10° NE
Cosmos 1697 Rocket 2.6 16:39:42 10° NNW 16:45:21 74° ENE 16:50:58 10° SE
FengYun 1-2 T 4.2 16:41:34 10° SSE 16:47:08 73° ENE 16:52:40 10° NNW
Cosmos 372 Rocket 4.4 16:42:14 10° NNW 16:47:12 41° ENE 16:52:09 10° SE
Cosmos 1271 Rocket 4.2 16:44:33 10° SW 16:48:17 39° WNW 16:52:05 10° N
Sich 1 3.5 16:44:45 10° N 16:48:44 36° ENE 16:52:44 10° SE
NOSS 2-1 (C) 4.3 16:46:35 10° W 16:49:29 29° NNW 16:52:38 10° NNE
Cosmos 1980 Rocket 2.4 16:44:05 10° NNW 16:49:36 47° NE 16:55:02 10° SE
NOAA 6 4.0 16:45:27 10° SSE 16:50:31 63° ENE 16:55:36 10° N
Cosmos 1805 Rocket 3.7 16:46:35 10° N 16:50:48 47° ENE 16:54:59 10° SSE
Cosmos 2369 3.8 16:45:52 10° NNW 16:51:34 59° NE 16:57:13 10° SE
Cosmos 2221 2.7 16:48:09 10° SSW 16:52:25 77° W 16:56:46 10° N
CZ-4C R/B 3.0 16:49:05 10° NW 16:55:47 57° NE 17:03:48 10° ESE
USA 234 3.4 16:50:02 10° SE 16:56:36 81° SSW 17:03:10 10° WNW
Cosmos 1092 Rocket 4.0 16:50:24 10° N 16:56:44 65° ENE 17:03:02 10° SSE
Cosmos 1842 Rocket 3.7 16:52:50 10° SSW 16:57:18 80° W 17:01:50 10° N
Cosmos 2084 4.5 16:53:30 10° NW 16:57:40 51° SW 17:01:59 10° SSE
NOSS 3-1 (A) 4.4 16:50:37 10° NW 16:57:57 73° SW 17:06:37 10° SSE
Cosmos 1428 Rocket 4.5 16:53:24 10° N 16:59:28 59° ENE 17:05:32 10° SSE
USA 306 3.2 16:56:13 10° W 17:00:25 54° N 17:03:35 16° ENE
SL-16 R/B 3.3 16:56:06 10° NNW 17:00:40 24° NE 17:04:15 14° E
Cosmos 1812 4.1 16:58:35 10° SE 17:01:22 19° E 17:02:43 16° ENE
ISS -3.6 16:58:17 10° WNW 17:01:41 76° SSW 17:04:58 11° ESE
Meteor 1-25 Rocket 4.1 16:56:53 10° N 17:02:29 80° ENE 17:08:06 10° SSE
NOSS 2-2 (D) 4.2 16:58:46 10° NW 17:03:39 73° NE 17:10:28 10° SE
NOSS 2-2 (E) 4.3 16:58:57 10° NW 17:03:59 85° NE 17:11:08 10° SE
deb Chang Zheng 4 4.3 17:02:14 10° SE 17:06:00 30° ENE 17:09:48 10° N
SMAP 3.0 17:01:49 10° SSE 17:06:29 84° ENE 17:11:10 10° NNW
Cosmos 2082 Rocket 3.0 17:01:59 10° SSE 17:06:55 31° ESE 17:10:43 15° NE
Cosmos 1939 Rocket 2.9 17:03:35 10° SSE 17:07:42 87° WSW 17:11:48 10° NNW
Cosmos 858 Rocket 4.5 17:03:14 10° NNW 17:08:35 78° ENE 17:13:51 10° SSE
CORIOLIS 4.1 17:04:04 10° SSE 17:09:28 80° ENE 17:14:56 10° NNW
Cosmos 2333 Rocket 4.0 17:08:01 10° N 17:10:52 14° NNE 17:12:25 12° NE
Cosmos 44 Rocket 3.9 17:06:15 10° NNW 17:10:53 37° NE 17:14:23 15° E
Cosmos 2278 3.8 17:10:01 10° NNW 17:15:37 53° NE 17:21:11 10° SE
CZ-4B DEB 4.1 17:10:21 10° SSE 17:15:51 79° ENE 17:21:22 10° NNW
Cosmos 1602 3.6 17:12:12 10° N 17:16:04 85° E 17:19:56 10° S
Cosmos 1627 Rocket 4.4 17:12:01 10° N 17:18:15 78° E 17:24:22 10° SSE
USA 307 3.2 17:15:06 10° W 17:19:19 54° N 17:21:44 23° ENE
AQUARIUS 4.2 17:15:54 10° SSE 17:20:24 85° WSW 17:24:56 10° NNW
Cosmos 540 Rocket 3.5 17:16:48 10° S 17:21:49 59° ESE 17:26:07 14° NNE
Cosmos 2034 Rocket 4.3 17:17:08 10° SSW 17:23:16 71° WNW 17:29:27 10° N
COSMO-SKYMED 1 3.4 17:23:24 22° NE 17:25:14 30° E 17:29:04 10° SSE
ARGOS 3.4 17:20:56 10° SE 17:26:03 46° ENE 17:31:12 10° N
Cosmos 2279 Rocket 4.3 17:21:13 10° SSE 17:27:01 44° E 17:32:51 10° NNE
COSMOS 2406 3.2 17:21:45 10° SSW 17:27:27 69° ESE 17:32:09 15° NE
SL-08 R/B 4.4 17:24:05 10° N 17:28:34 43° WNW 17:32:58 10° SW
Cosmos 1833 Rocket 2.6 17:23:07 10° SSW 17:28:45 86° ESE 17:33:42 14° NNE
Meteor 2-21 4.4 17:23:07 10° N 17:29:15 83° E 17:35:18 10° SSE
Cosmos 1782 2.7 17:26:19 10° S 17:30:16 64° E 17:33:48 13° NNE
ATLAS 5 CENTAUR R/B 2.7 17:22:14 10° NW 17:31:25 52° NNE 17:33:07 28° E
Cosmos 1633 Rocket 3.2 17:29:43 10° N 17:33:59 48° ENE 17:38:13 10° SSE
Cosmos 1818 3.7 17:29:36 10° NW 17:35:00 54° NE 17:38:50 19° ESE
ATLAS CENTAUR R/B 3.6 17:32:03 10° WNW 17:35:13 19° NNW 17:37:49 13° NNE
Cosmos 2219 Rocket 3.9 17:33:04 10° N 17:36:06 14° NNE 17:36:27 14° NNE
Cosmos 468 Rocket 4.2 17:31:18 10° SSW 17:36:26 70° WNW 17:41:28 11° NNE
YAOGAN 1 3.7 17:39:35 25° NE 17:39:35 25° NE 17:42:12 10° N
ERBS 3.5 17:37:36 10° WNW 17:40:26 28° N 17:41:01 26° N
GEOS 3 Rocket 3.8 17:37:59 23° ESE 17:41:01 50° NE 17:46:01 10° NW
CZ-2D R/B 3.3 17:37:20 10° S 17:41:10 79° WSW 17:45:01 10° NNW
USA 308 3.1 17:37:36 10° WNW 17:41:48 54° N 17:43:14 36° ENE
Cosmos 1634 Rocket 4.0 17:37:34 10° S 17:43:54 84° E 17:50:17 10° N
SJ-11-01 4.3 17:39:17 10° SSE 17:43:56 59° ENE 17:48:37 10° N
COSMOS 2455 2.9 17:38:44 10° SSW 17:44:40 64° ESE 17:48:14 25° NE
CZ-2C R/B 2.7 17:40:35 15° NNE 17:44:43 49° E 17:49:43 10° S
Cosmos 1500 3.4 17:41:51 10° NNW 17:45:35 68° W 17:49:16 10° S
PAYLOAD B 4.4 17:40:05 10° SSE 17:45:42 79° WSW 17:51:21 10° NNW
Cosmos 2026 Rocket 4.2 17:40:54 10° NNW 17:47:02 71° W 17:53:03 10° S
CZ-4B R/B 3.0 17:42:48 10° SSE 17:48:12 80° ENE 17:53:34 10° NNW
Cosmos 1151 Rocket 3.0 17:45:04 10° S 17:49:18 57° E 17:51:27 27° NNE
Lacrosse 5 rocket 1.2 17:45:45 10° NW 17:49:38 64° NNE 17:50:35 46° E
Okean O Rocket 1.5 17:47:49 10° SSE 17:52:14 69° ENE 17:56:42 10° N
CZ-4 R/B 3.5 17:59:39 15° N 17:59:39 15° N 18:00:28 10° N
Cosmos 1666 Rocket 3.6 17:55:23 10° NNW 17:59:51 81° W 18:04:16 10° S
Cosmos 2208 Rocket 4.3 17:55:28 10° S 18:00:34 45° ESE 18:01:39 40° ENE
CZ-4 R/B 4.3 17:57:26 10° SSE 18:01:33 79° ENE 18:05:43 10° NNW
Meteor 1-11 Rocket 3.9 17:56:28 10° N 18:01:52 46° ENE 18:05:45 19° SE
Cosmos 1470 Rocket 3.6 17:58:40 10° N 18:03:05 57° ENE 18:07:28 10° SSE
Cosmos 2150 Rocket 4.0 17:58:06 10° NNW 18:03:11 53° ENE 18:04:48 38° ESE
H-2A R/B 2.5 17:59:20 10° S 18:04:26 60° WSW 18:09:26 10° NNW
USA 267 3.3 18:01:04 30° NE 18:04:35 77° NNW 18:11:07 10° WSW
Cosmos 1655 Rocket 4.0 17:58:45 10° N 18:05:06 60° ENE 18:11:23 10° SSE
Cosmos 1328 Rocket 3.5 18:02:27 10° S 18:06:50 62° E 18:07:30 54° NE
Cosmos 2360 Rocket 3.1 18:02:37 10° NNW 18:07:10 31° NE 18:07:10 31° NE
Landsat 5 3.8 18:08:42 45° SE 18:08:42 45° SE 18:11:49 10° S
USA 305 2.9 18:04:15 10° WNW 18:08:28 62° NNE 18:08:46 59° NE
SKYMED 2 3.4 18:12:01 41° NNE 18:13:31 85° ESE 18:17:51 10° SSW
Cosmos 1666 3.2 18:11:22 10° NNW 18:15:02 56° W 18:18:40 10° S
Cosmos 2180 Rocket 4.4 18:09:22 10° S 18:15:41 74° E 18:21:58 10° NNE
Cosmos 841 Rocket 3.7 18:10:50 10° SSW 18:15:59 68° WNW 18:18:54 26° NNE
COSMOS 2428 4.4 18:12:58 10° N 18:15:41 17° NNE 18:15:41 17° NNE
Feng Yun 1-1 Rocket 4.2 18:11:46 10° SSE 18:17:40 77° ENE 18:23:32 10° NNW
Meteor 2-8 Rocket 4.3 18:13:08 10° S 18:19:15 76° E 18:25:26 10° NNE
ATLAS CENTAUR R/B 2.2 18:12:08 10° WSW 18:20:02 73° NNW 18:20:43 60° NNE
Cosmos 1125 Rocket 3.4 18:16:05 10° NNW 18:21:20 68° ENE 18:22:14 56° ESE
Cosmos 2322 Rocket 2.2 18:22:10 10° NNW 18:27:48 57° NE 18:27:49 57° NE
Cosmos 1980 Rocket 3.7 18:28:21 10° NW 18:33:29 36° WSW 18:38:33 10° S
NOSS 3-4 (A) 4.3 18:27:27 10° NW 18:33:30 37° NNE 18:33:59 37° NNE
NOSS 3-4 (C) 4.3 18:27:33 10° NW 18:33:35 37° NNE 18:34:04 37° NNE
SL-08 RB Rocket 3.9 18:30:55 10° S 18:35:33 69° WSW 18:40:10 10° NNW
ATLAS 2AS CENTAUR R/B 3.8 18:29:30 10° NW 18:36:08 31° N 18:37:27 29° NNE
Cosmos 1812 4.0 18:33:12 10° SW 18:36:50 40° WNW 18:37:47 33° NW
ISS -1.5 18:35:27 10° W 18:37:58 22° SW 18:37:58 22° SW
USA 306 3.6 18:36:21 10° WNW 18:39:35 49° NW 18:39:35 49° NW
CZ-4C R/B 3.6 18:37:37 10° NW 18:44:35 54° WSW 18:52:42 10° SSE
SL-16 R/B 2.1 18:39:49 10° NNW 18:45:33 89° WSW 18:46:11 72° SSE
Cosmos 2237 Rocket 4.4 18:45:53 10° N 18:47:00 13° N 18:47:00 13° N
Cosmos 2082 Rocket 2.8 18:45:13 10° SW 18:50:46 53° NW 18:52:35 38° N
Cosmos 44 Rocket 4.0 18:47:49 10° NW 18:52:36 51° WSW 18:53:10 48° SSW
Cosmos 2333 Rocket 3.6 18:51:33 10° NNW 18:54:26 26° N 18:54:26 26° N
USA 307 4.4 18:55:13 10° WNW 18:57:45 35° WNW 18:57:45 35° WNW
COSMO-SKYMED 1 4.0 19:00:37 32° NW 19:01:27 35° WNW 19:05:23 10° SW
ATLAS CENTAUR R/B 4.3 19:13:09 10° NNW 19:13:56 12° NNW 19:13:56 12° NNW
GEOS 3 Rocket 4.5 19:19:06 45° SW 19:19:07 45° SW 19:24:06 10° NW
Cosmos 2219 Rocket 4.0 19:16:14 10° NNW 19:18:11 21° N 19:18:11 21° N
CZ-2C R/B 4.3 19:22:06 19° NNW 19:24:49 29° WNW 19:29:14 10° WSW
Lacrosse 5 rocket 4.0 19:25:01 10° WNW 19:26:12 17° W 19:26:12 17° W
Okean O Rocket 4.4 19:26:15 10° SW 19:29:04 16° W 19:31:53 10° NW
COSMOS 2455 4.0 19:25:27 10° WSW 19:31:00 36° NW 19:31:23 36° NNW
BREEZE-M DEB (TANK) 4.5 19:28:00 10° SW 19:44:57 61° SSW 19:44:57 61° SSW
USA 267 3.9 19:48:24 47° NW 19:48:24 47° NW 19:53:35 10° WNW
Cosmos 2360 Rocket 3.9 19:46:27 10° NW 19:48:57 27° NW 19:48:57 27° NW
Cosmos 2322 Rocket 4.2 20:06:42 10° NW 20:09:40 24° WNW 20:09:40 24° WNW
ATLAS 2AS CENTAUR R/B 4.3 20:21:24 10° NW 20:24:52 28° NNW 20:24:52 28° NNW
